"Pseudo-MPEC" for W07106

Created 2023 Nov 22 11:22:19 UT using Find_Orb

Click here for an explanation of pseudo-MPECs

 
 Astrometry: 
     W07106 * C2023 11 18AFDRsY#5wSE@a)MMP$]36]5d%\`(*pE7iX:EmkyAstrometry9e`O18
     W07106   C2023 11 18B9gCCFZ0\=F!B(aBell0)[Bw'5iZ(T@KGaHredacted;E-\UDy!EO18
     W07106   C2023 11 18v^`rIRe35Ug[jV;sd5xfQ1^\f\5B'eh8Ot#bdWqQm;abh%xfkO@gO18
     W07106   C2023 11 19CJle+WEMotHL6f^-qQHX977kW)tx+bTNfmq28y[f!bVgFc^QfpDWO18
     W07106   C2023 11 19a6hjdfclickvu$FOLa=C++a_+%w\EG.pjy51O;`-b53ZQRQt7IYRO18
     W07106   C2023 11 19bdW_V`ZXn+#G@hP5(8Q=KeH#pBnsUG[sXts5Z.G)9J*3l[tM.lxMO18
     W07106  KC2023 11 21:VD7J=lqS@*M9?b!fEnkO']d^27l$6?F=Up5BhBo5E17eV+V`gnJ204
     W07106  KC2023 11 21Kq^,jR.2whxe0$4yIFjiVvE=mABM]91i]4ukwhhP-RTvQXBvGxLF204
     W07106  KC2023 11 21oi:61gs$yag7-AhO/];M3F+UBR-nR7ll4eg[B.LOO;$83;S`NSk]204
     W07106  KB2023 11 22.25781 04 21 24.60 +22 59 50.1    ~BM7b 20.7 GXNEOCPH36
     W07106  KB2023 11 22.27001 04 21 22.85 +22 59 54.5    ~BM7b 20.7 GXNEOCPH36
     W07106  KB2023 11 22.28183 04 21 21.18 +22 59 59.2    ~BM7b 20.5 GXNEOCPH36
     W07106  KC2023 11 22vwEDPG\v:^0Y?Qoa_A6h\nJ0308gVvcSAa]BCZ6\DJ!P?b5`x$wlH21
     W07106  KC2023 11 22^GhereVrWforo_gEA@cX-lSi7WDAv,V6^43PsZaEl0*Y/,TOI3k0H21
     W07106  KC2023 11 22%xSpexplanationUw7+)HBg\Ur/j3T\C8;RDp[H]XbY23h/JtmLpH21
     W07106  KC2023 11 22ZcK,r;?'Qb?mnd=)f0DbC0O1@T+3!Gi'TbvMiN6bu^8hl8R7TuG*H21
     W07106  KC2023 11 22`A^l.dG0T(dp%k9-[!(@(@btXne2Cgp).TOq?Q'MYEw86jyrk'lMH21
     W07106  1C2023 11 22.33103204 21 14.407+23 00 21.10   ~BM8b 20.74GVNEOCPG96
     W07106  1C2023 11 22.33615904 21 13.648+23 00 23.65   ~BM8b 20.34GVNEOCPG96
     W07106  1C2023 11 22.34128904 21 13.007+23 00 25.60   ~BM8b 20.59GVNEOCPG96
     W07106  1C2023 11 22.34644304 21 12.215+23 00 27.36   ~BM8b 20.76GVNEOCPG96

Station data:
(204) Schiaparelli Observatory  (N45.867930 E8.770800)  Italy.  Observer L.
   Buzzi. 0.60-m f/4.64 Newtonian + CCD0.84-m f/3.5 reflector + CCD.
(G96) Mt. Lemmon Survey  (N32.442751 W110.788720)  US/Arizona.  Observer E.
   J. Christensen. 1.5-m reflector + 10K CCD.
(H21) Astronomical Research Observatory, Westfield  (N39.483054 W87.968270)
   US/Illinois.  Observer R. Holmes. Measurers S. Foglia, L. Buzzi, T.
   Linder, R. Holmes. 0.76-m f/3.0 astrograph + CCD0.81-m f/4.0 astrograph +
   CCD0.61-m f/4.5 astrograph + CCD0.40-m f/5.32 astrograph + CCD.
(H36) Sandlot Observatory, Scranton  (N38.797690 W95.706400)  US/Kansas.
   Observer G. Hug. 0.56-m reflector + CCD.
(O18) WFST, Lenghu  (N38.607601 E93.895220).

Orbital elements:  W07106
   Perihelion 2024 Mar 1.58866 +/- 0.739 TT = 14:07:40 (JD 2460371.08866)
Epoch 2023 Nov 22.0 TT = JDT 2460270.5   Earth MOID: 0.0412   Ve: 0.0217
M 316.95003452 +/- 2.5              Ma: 0.0019                   AutoNEOCP
n   0.42798029 +/- 0.0225           Peri.  118.61895 +/- 0.09
a   1.74389445 +/- 0.0611           Node    58.30643 +/- 0.14
e   0.5979589 +/- 0.0209            Incl.    7.53706 +/- 0.31
P   2.30/841.14d           H 20.91  G  0.15   U 10.2
q 0.70111708 +/- 0.0119    Q 2.78667183 +/- 0.134         (J2000 ecliptic)
From 21 observations 2023 Nov. 18-22; mean residual 0".23
Residuals in arcseconds: 
231118 O18  .02+  .01-    231121 204  .18+  .21+    231122 H21  .28-  .08+    
231118 O18  .02-  .02+    231121 204  .12+  .37+    231122 H21  .16-  .24+    
231118 O18  .02+  .06+    231122 H36  .01+  .43+    231122 H21  .03-  .27+    
231119 O18  .06-  .09-    231122 H36  .17-  .20-    231122 G96  .08-  .39-    
231119 O18  .03+  .07-    231122 H36  .01+  .33-    231122 G96  .41-  .08+    
231119 O18  .01-  .05-    231122 H21  .09-  .13-    231122 G96  .89+  .05-    
231121 204  .08-  .02-    231122 H21  .11-  .07-    231122 G96  .15+  .37-    

Ephemerides (geocentric):
Date (UTC) HH   RA             Dec           delta  r     elong  mag " sig PA
---- --------  ------------   ------------  ------ ------ -----  --- --------
2023 11 22 11  04 20 57.036   +23 01 16.36  .50910 1.4936 172.1 20.7 .074   3
2023 11 22 12  04 20 51.304   +23 01 33.43  .50869 1.4933 172.1 20.7 .064   7
2023 11 22 13  04 20 45.561   +23 01 50.50  .50828 1.4929 172.2 20.7 .054  13
2023 11 22 14  04 20 39.807   +23 02 07.58  .50787 1.4925 172.3 20.7 .044  22
2023 11 22 15  04 20 34.043   +23 02 24.67  .50746 1.4922 172.3 20.7 .037  35
2023 11 22 16  04 20 28.267   +23 02 41.77  .50706 1.4918 172.4 20.7 .032  55
2023 11 22 17  04 20 22.480   +23 02 58.87  .50665 1.4914 172.4 20.7 .033  78
2023 11 22 18  04 20 16.682   +23 03 15.99  .50624 1.4911 172.5 20.7 .039  98
2023 11 22 19  04 20 10.873   +23 03 33.11  .50583 1.4907 172.6 20.7 .048 112
2023 11 22 20  04 20 05.053   +23 03 50.23  .50543 1.4903 172.6 20.7 .060 121
2023 11 22 21  04 19 59.222   +23 04 07.36  .50502 1.4900 172.7 20.7 .073 126
2023 11 22 22  04 19 53.380   +23 04 24.50  .50462 1.4896 172.7 20.7 .087 131
2023 11 22 23  04 19 47.527   +23 04 41.65  .50421 1.4892 172.8 20.7 .101 133
2023 11 23 00  04 19 41.663   +23 04 58.81  .50380 1.4889 172.9 20.7 .117 135
2023 11 23 01  04 19 35.788   +23 05 15.97  .50340 1.4885 172.9 20.7 .133 137
2023 11 23 02  04 19 29.902   +23 05 33.14  .50300 1.4881 173.0 20.7 .150 138
2023 11 23 03  04 19 24.005   +23 05 50.31  .50259 1.4877 173.0 20.7 .167 139
2023 11 23 04  04 19 18.097   +23 06 07.49  .50219 1.4874 173.1 20.7 .184 140
2023 11 23 05  04 19 12.177   +23 06 24.68  .50178 1.4870 173.2 20.7 .203 140
2023 11 23 06  04 19 06.247   +23 06 41.88  .50138 1.4866 173.2 20.7 .221 141
2023 11 23 07  04 19 00.306   +23 06 59.08  .50098 1.4863 173.3 20.7 .240 141
2023 11 23 08  04 18 54.353   +23 07 16.29  .50058 1.4859 173.3 20.7 .260 141
2023 11 23 09  04 18 48.390   +23 07 33.50  .50017 1.4855 173.4 20.7 .280 141
2023 11 23 10  04 18 42.415   +23 07 50.72  .49977 1.4852 173.5 20.7 .301 141
2023 11 23 11  04 18 36.429   +23 08 07.95  .49937 1.4848 173.5 20.6 .322 141
2023 11 23 12  04 18 30.432   +23 08 25.18  .49897 1.4844 173.6 20.6 .344 141
2023 11 23 13  04 18 24.424   +23 08 42.42  .49857 1.4841 173.6 20.6 .366 141
2023 11 23 14  04 18 18.405   +23 08 59.67  .49817 1.4837 173.7 20.6 .389 141
2023 11 23 15  04 18 12.375   +23 09 16.92  .49777 1.4833 173.8 20.6 .412 141
2023 11 23 16  04 18 06.333   +23 09 34.18  .49737 1.4829 173.8 20.6 .436 141
2023 11 23 17  04 18 00.281   +23 09 51.45  .49697 1.4826 173.9 20.6 .461 141
2023 11 23 18  04 17 54.217   +23 10 08.72  .49657 1.4822 173.9 20.6 .486 141
2023 11 23 19  04 17 48.142   +23 10 26.00  .49618 1.4818 174.0 20.6 .511 141
2023 11 23 20  04 17 42.056   +23 10 43.28  .49578 1.4815 174.1 20.6 .537 141
2023 11 23 21  04 17 35.959   +23 11 00.57  .49538 1.4811 174.1 20.6 .564 140
2023 11 23 22  04 17 29.851   +23 11 17.87  .49498 1.4807 174.2 20.6 .591 140
2023 11 23 23  04 17 23.731   +23 11 35.17  .49459 1.4804 174.2 20.6 .619 140
2023 11 24 00  04 17 17.601   +23 11 52.47  .49419 1.4800 174.3 20.6 .647 140
2023 11 24 01  04 17 11.459   +23 12 09.79  .49380 1.4796 174.3 20.6 .676 140
2023 11 24 02  04 17 05.306   +23 12 27.11  .49340 1.4792 174.4 20.6 .706 140
2023 11 24 03  04 16 59.141   +23 12 44.43  .49301 1.4789 174.5 20.6 .736 139
2023 11 24 04  04 16 52.966   +23 13 01.76  .49261 1.4785 174.5 20.6 .767 139
2023 11 24 05  04 16 46.779   +23 13 19.09  .49222 1.4781 174.6 20.6 .798 139
2023 11 24 06  04 16 40.581   +23 13 36.43  .49182 1.4778 174.6 20.6 .831 139
2023 11 24 07  04 16 34.372   +23 13 53.78  .49143 1.4774 174.7 20.6 .863 138
2023 11 24 08  04 16 28.152   +23 14 11.13  .49104 1.4770 174.7 20.6 .897 138
2023 11 24 09  04 16 21.920   +23 14 28.49  .49064 1.4767 174.8 20.5 .931 138
2023 11 24 10  04 16 15.677   +23 14 45.85  .49025 1.4763 174.9 20.5 .966 138